Weather in Udelnyye Uty

Russia / Bryansk Oblast     52°51′44″N   33°57′53″E
temp.,
°C
wind,
m/s
gust,
m/s
humid.,
%
clouds,
%
prec.,
mm/h
press.,
hPa
HPBL,
m
15 may, sat
sat1500:00+13s229337 0.0 100826
03:00+12sse35942 0.0 100875
06:00+11s379755 0.7 1008149
09:00+16ssw47810 1.3 1008402
12:00+19s676833 1.8 10091324
15:00+19ssw687241 4.8 10081165
18:00+17ssw58815 1.9 1009794
21:00+13s4109496 3.9 1010209
16 may, sun
sun1600:00+11ssw38965 0.1 1011159
03:00+10ssw38965 0.1 1012145
06:00+10ssw379690 0.0 1013175
09:00+15sw45823 0.0 1013484
12:00+19sw34638 0.0 10141252
15:00+21ssw345430 0.0 10131828
18:00+20s3565100 0.0 1012298
21:00+15se227975 0.1 101311
17 may, mon
mon1700:00+13e338715 0.0 101329
03:00+12e369143 0.0 101286
06:00+13ene4129059 0.1 1011269
09:00+18e6108062 0.4 1009439
12:00+24ese71058100 0.0 1007947
15:00+25se7135883 0.0 10051497
18:00+23se51067100 0.0 1004567
21:00+18se4987100 0.0 1004165
18 may, tue
tue1800:00+17se51491100 0.5 1003384
03:00+16se3896100 1.2 1002191
06:00+16se51195100 1.1 1002452
09:00+17sse71186100 1.2 10021002
12:00+16sse61188100 0.3 1002834
15:00+16s7129077 0.7 1002802
18:00+18s598176 0.5 1003791
21:00+15sse3993100 2.8 1003210
19 may, wed
wed1900:00+14sse3896100 0.9 1002272
03:00+13sse489695 1.5 1002350
06:00+13ssw469899 2.7 1001340
09:00+13sw4596100 3.0 1001508
12:00+12wsw5896100 2.6 1002663
15:00+12w71292100 9.9 1004892
18:00+12w61188100 0.8 1006876
21:00+11sw51192100 0.8 1008326